Weather in An-Najaf

Iraq     32°01′18″N   44°20′05″E
temp.,
°C
wind,
m/s
gust,
m/s
humid.,
%
clouds,
%
prec.,
mm/h
press.,
hPa
HPBL,
m
17 april, sat
sat1700:00+25n4521100 0.0 1014107
03:00+24nnw3522100 0.0 101480
06:00+23nw452357 0.0 101592
09:00+28nw681863 0.0 1017646
12:00+32nw89130 0.0 10161539
15:00+34nnw810110 0.0 10131883
18:00+33nnw69110 0.0 1013716
21:00+29nnw58140 0.0 1014160
18 april, sun
sun1800:00+27nnw45160 0.0 101367
03:00+26nw44180 0.0 101450
06:00+25nw44190 0.0 101560
09:00+31nw68144 0.0 1016576
12:00+35nw57100 0.0 10151846
15:00+37nnw57911 0.0 10123122
18:00+36nne451147 0.0 1012348
21:00+32n46156 0.0 1013119
19 april, mon
mon1900:00+30nw341684 0.0 101242
03:00+28nnw451878 0.0 101274
06:00+26nw452125 0.0 101385
09:00+32nw6716100 0.0 1014520
12:00+36nnw8101496 0.0 10131840
15:00+38nw8111198 0.0 10102570
18:00+36nnw71112100 0.0 1010931
21:00+33nw61216100 0.0 1010324
20 april, tue
tue2000:00+30nw61221100 0.0 1010258
03:00+28nw61024100 0.0 1009194
06:00+27nw51027100 0.0 1010185
09:00+33nw681893 0.0 1011463
12:00+38nnw7811100 0.0 10091160
15:00+40nnw66817 0.0 10071621
18:00+38nw4598 0.0 1006200
21:00+35nnw2310100 0.0 100722
21 april, wed
wed2100:00+34se331157 0.0 100613
03:00+31n2213100 0.0 100711
06:00+30wsw44134 0.0 100927
09:00+37wsw45999 0.0 1010422
12:00+41wnw45742 0.0 10081861
15:00+40nw971097 0.0 10081287
18:00+39nnw571170 0.0 1007558
21:00+34nnw8141343 0.0 1009422